^^
Saratoga-Weather Station Historical Data
 
Daily Summary for August 19, 2019 Units:  Metric    English   Both
Daily Weekly Monthly Yearly Custom
  Current: High: Low: Average:
Temperature: 13 °C 16 °C 13 °C 14.3 °C
Dew Point: 11 °C 13 °C 11 °C 11.5 °C
Humidity: 89% 89% 78% 83%
Wind Speed: 3km/h 3km/h 0km/h 1.8km/h
Wind Gust: 5km/h 10km/h - -
WindW - - West
Pressure: 1017.37 hPa 1017.37 hPa 1016.7 hPa -
Precipitation: 0 mm      
Historical Graphs
 
 
Tabular Data for August 19, 2019
Time Temperature Dew Point Pressure Wind Wind Speed Wind Gust Humidity Rainfall Rate (Hourly) solar Conditions
00:00 16 °C 13 °C 1016.7 hPa WSW 2 km/h 3 km/h 78% 0 mm 0 W/m2
00:10 16 °C 12 °C 1016.7 hPa Calm   2 km/h 78% 0 mm 0 W/m2
00:20 16 °C 12 °C 1016.8 hPa Calm     79% 0 mm 0 W/m2
00:30 16 °C 12 °C 1016.76 hPa WSW 2 km/h 5 km/h 79% 0 mm 0 W/m2
00:40 16 °C 12 °C 1016.8 hPa W 3 km/h 6 km/h 79% 0 mm 0 W/m2
00:50 16 °C 12 °C 1016.8 hPa W 3 km/h 6 km/h 79% 0 mm 0 W/m2
01:00 15 °C 12 °C 1016.8 hPa W 2 km/h 5 km/h 80% 0 mm 0 W/m2
01:10 15 °C 12 °C 1016.9 hPa W 2 km/h 5 km/h 80% 0 mm 0 W/m2
01:20 15 °C 12 °C 1016.9 hPa Calm   3 km/h 80% 0 mm 0 W/m2
01:30 15 °C 12 °C 1016.83 hPa WSW 2 km/h 3 km/h 81% 0 mm 0 W/m2
01:40 15 °C 11 °C 1016.8 hPa WSW 2 km/h 3 km/h 81% 0 mm 0 W/m2
01:50 15 °C 12 °C 1016.8 hPa W 3 km/h 6 km/h 83% 0 mm 0 W/m2
02:00 14 °C 12 °C 1016.8 hPa WNW 3 km/h 10 km/h 83% 0 mm 0 W/m2
02:10 15 °C 12 °C 1016.8 hPa WNW 3 km/h 8 km/h 83% 0 mm 0 W/m2
02:20 14 °C 12 °C 1016.9 hPa W 2 km/h 5 km/h 83% 0 mm 0 W/m2
02:30 14 °C 11 °C 1016.83 hPa WSW 2 km/h 3 km/h 83% 0 mm 0 W/m2
02:40 14 °C 11 °C 1016.86 hPa W 3 km/h 5 km/h 84% 0 mm 0 W/m2
02:50 14 °C 11 °C 1016.9 hPa Calm   3 km/h 85% 0 mm 0 W/m2
03:00 14 °C 11 °C 1017 hPa Calm   3 km/h 85% 0 mm 0 W/m2
03:10 14 °C 11 °C 1017.1 hPa W 2 km/h 3 km/h 85% 0 mm 0 W/m2
03:20 14 °C 11 °C 1017.1 hPa WSW 2 km/h 5 km/h 85% 0 mm 0 W/m2
03:30 13 °C 11 °C 1017.1 hPa Calm   3 km/h 85% 0 mm 0 W/m2
03:40 13 °C 11 °C 1017.1 hPa W 2 km/h 3 km/h 86% 0 mm 0 W/m2
03:50 13 °C 11 °C 1017.2 hPa WSW 2 km/h 5 km/h 86% 0 mm 0 W/m2
04:00 13 °C 11 °C 1017.1 hPa Calm   3 km/h 86% 0 mm 0 W/m2
04:10 13 °C 11 °C 1017.2 hPa W 2 km/h 3 km/h 88% 0 mm 0 W/m2
04:20 13 °C 11 °C 1017.2 hPa WSW 2 km/h 3 km/h 88% 0 mm 0 W/m2
04:30 13 °C 11 °C 1017.17 hPa WSW 2 km/h 5 km/h 88% 0 mm 0 W/m2
04:40 13 °C 11 °C 1017.2 hPa W 2 km/h 6 km/h 88% 0 mm 0 W/m2
04:50 13 °C 11 °C 1017.37 hPa W 3 km/h 5 km/h 89% 0 mm 0 W/m2
Knjazevac, Serbia
Compliments of Weather Underground - 2 mb